Overview Statistics Trail Chart Weather Telemetry Raw packets
 

This is the latest recevied weather packets stored in our database for station/object SV7GBF-2. If no packets are shown the sender has not sent any weather packets the latest 10 day(s).

<< 10 11 12 13 14 15 16 >>
Time Temp. Humidity Pressure Rain* Wind** Luminosity Snow
1788440045 30.56° C 28% 1014 hPa - - - -
1788439473 30.56° C 28% 1014 hPa - - - -
1788438845 31.67° C 26% 1014 hPa - - - -
1788438245 30.56° C 28% 1014 hPa - - - -
1788437646 30.56° C 28% 1014 hPa - - - -
1788437045 30.56° C 28% 1014 hPa - - - -
1788435846 30.56° C 28% 1014 hPa - - - -
1788434645 30° C 29% 1014 hPa - - - -
1788432246 30° C 30% 1014 hPa - - - -
1788431647 29.44° C 30% 1014 hPa - - - -
1788430445 28.89° C 30% 1015 hPa - - - -
1788429845 28.89° C 31% 1015 hPa - - - -
1788429245 28.33° C 36% 1015 hPa - - - -
1788428045 27.22° C 41% 1015 hPa - - - -
1788427445 26.67° C 42% 1015 hPa - - - -
1788426845 26.67° C 43% 1015 hPa - - - -
1788426245 26.67° C 43% 1015 hPa - - - -
1788425645 27.22° C 44% 1015 hPa - - - -
1788424445 27.78° C 43% 1015 hPa - - - -
1788423845 27.22° C 49% 1015 hPa - - - -
1788423247 26.67° C 46% 1015 hPa - - - -
1788422644 26.67° C 46% 1015 hPa - - - -
1788421444 25.56° C 52% 1015 hPa - - - -
1788420845 25.56° C 62% 1015 hPa - - - -
1788420245 25° C 62% 1015 hPa - - - -

* Rain since midnight (hover to see other rain measurements)
** Current wind speed in m/s (hover to see current wind gust speed)